Time,TemperatureF,DewpointF,PressureIn,WindDirection,WindDirectionDegrees,WindSpeedMPH,WindSpeedGustMPH,Humidity,HourlyPrecipIn,Conditions,Clouds,dailyrainin,SoftwareType,DateUTC
2013-11-20 00:00:00,50.4,31.5,29.98,South,173,6.0,22.0,48,0.00,,---,0.00,VWS V14.01,2013-11-20 06:00:00,
2013-11-20 00:03:00,50.4,31.5,29.98,SE,139,6.0,19.0,48,0.00,,---,0.00,VWS V14.01,2013-11-20 06:03:00,
2013-11-20 00:05:00,50.4,31.0,29.98,South,177,4.0,19.0,47,0.00,,---,0.00,VWS V14.01,2013-11-20 06:05:00,
2013-11-20 00:08:00,50.4,31.5,29.98,South,186,9.0,18.0,48,0.00,,---,0.00,VWS V14.01,2013-11-20 06:08:00,
2013-11-20 00:10:00,50.3,31.4,29.98,SSE,162,10.0,18.0,48,0.00,,---,0.00,VWS V14.01,2013-11-20 06:10:00,
2013-11-20 00:13:00,50.3,31.4,29.98,SSE,158,3.0,14.0,48,0.00,,---,0.00,VWS V14.01,2013-11-20 06:13:00,
2013-11-20 00:15:00,50.3,31.4,29.98,SSE,165,10.0,15.0,48,0.00,,---,0.00,VWS V14.01,2013-11-20 06:15:00,
2013-11-20 00:18:00,50.3,31.4,29.98,South,174,7.0,17.0,48,0.00,,---,0.00,VWS V14.01,2013-11-20 06:18:00,
2013-11-20 00:20:00,50.3,31.4,29.98,SSW,196,10.0,17.0,48,0.00,,---,0.00,VWS V14.01,2013-11-20 06:20:00,
2013-11-20 00:23:00,50.2,31.3,29.98,South,182,5.0,18.0,48,0.00,,---,0.00,VWS V14.01,2013-11-20 06:23:00,
2013-11-20 00:25:00,50.2,31.3,29.98,South,177,5.0,18.0,48,0.00,,---,0.00,VWS V14.01,2013-11-20 06:25:00,
2013-11-20 00:28:00,50.2,31.3,29.98,SSW,209,5.0,18.0,48,0.00,,---,0.00,VWS V14.01,2013-11-20 06:28:00,
2013-11-20 00:30:00,50.2,30.8,29.98,SSE,161,15.0,18.0,47,0.00,,---,0.00,VWS V14.01,2013-11-20 06:30:00,
2013-11-20 00:33:00,50.2,30.8,29.98,South,182,11.0,16.0,47,0.00,,---,0.00,VWS V14.01,2013-11-20 06:33:00,
2013-11-20 00:35:00,50.2,31.3,29.98,SSE,159,10.0,16.0,48,0.00,,---,0.00,VWS V14.01,2013-11-20 06:35:00,
2013-11-20 00:38:00,50.2,31.3,29.98,SSW,192,12.0,20.0,48,0.00,,---,0.00,VWS V14.01,2013-11-20 06:38:00,
2013-11-20 00:40:00,50.2,30.8,29.98,South,188,4.0,20.0,47,0.00,,---,0.00,VWS V14.01,2013-11-20 06:40:00,
2013-11-20 00:43:00,50.1,30.7,29.98,South,189,4.0,15.0,47,0.00,,---,0.00,VWS V14.01,2013-11-20 06:43:00,
2013-11-20 00:45:00,50.1,30.7,29.98,South,178,3.0,21.0,47,0.00,,---,0.00,VWS V14.01,2013-11-20 06:45:00,
2013-11-20 00:48:00,50.0,30.6,29.98,South,186,8.0,16.0,47,0.00,,---,0.00,VWS V14.01,2013-11-20 06:48:00,
2013-11-20 00:50:00,50.0,30.6,29.98,SSW,194,14.0,18.0,47,0.00,,---,0.00,VWS V14.01,2013-11-20 06:50:00,
2013-11-20 00:53:00,50.0,30.6,29.97,South,171,10.0,14.0,47,0.00,,---,0.00,VWS V14.01,2013-11-20 06:53:00,
2013-11-20 00:55:00,50.0,30.6,29.97,SSE,160,11.0,18.0,47,0.00,,---,0.00,VWS V14.01,2013-11-20 06:55:00,
2013-11-20 00:58:00,50.0,30.6,29.97,South,178,16.0,22.0,47,0.00,,---,0.00,VWS V14.01,2013-11-20 06:58:00,
2013-11-20 01:00:00,50.0,30.6,29.97,SSW,202,5.0,22.0,47,0.00,,---,0.00,VWS V14.01,2013-11-20 07:00:00,
2013-11-20 01:03:00,49.9,30.5,29.97,SE,128,15.0,16.0,47,0.00,,---,0.00,VWS V14.01,2013-11-20 07:03:00,
2013-11-20 01:05:00,49.8,30.4,29.97,South,180,10.0,16.0,47,0.00,,---,0.00,VWS V14.01,2013-11-20 07:05:00,
2013-11-20 01:08:00,49.8,30.9,29.97,SW,225,13.0,14.0,48,0.00,,---,0.00,VWS V14.01,2013-11-20 07:08:00,
2013-11-20 01:10:00,49.7,30.3,29.97,South,175,5.0,21.0,47,0.00,,---,0.00,VWS V14.01,2013-11-20 07:10:00,
2013-11-20 01:13:00,49.7,30.8,29.97,South,190,12.0,19.0,48,0.00,,---,0.00,VWS V14.01,2013-11-20 07:13:00,
2013-11-20 01:15:00,49.7,30.3,29.97,South,184,16.0,19.0,47,0.00,,---,0.00,VWS V14.01,2013-11-20 07:15:00,
2013-11-20 01:19:00,49.7,30.3,29.97,SW,221,6.0,19.0,47,0.00,,---,0.00,VWS V14.01,2013-11-20 07:19:00,
2013-11-20 01:20:00,49.7,30.3,29.97,South,171,11.0,19.0,47,0.00,,---,0.00,VWS V14.01,2013-11-20 07:20:00,
2013-11-20 01:24:00,49.7,30.8,29.97,SE,146,13.0,17.0,48,0.00,,---,0.00,VWS V14.01,2013-11-20 07:24:00,
2013-11-20 01:25:00,49.6,30.7,29.97,SSE,168,12.0,17.0,48,0.00,,---,0.00,VWS V14.01,2013-11-20 07:25:00,
2013-11-20 01:29:00,49.6,30.7,29.96,SSW,193,4.0,22.0,48,0.00,,---,0.00,VWS V14.01,2013-11-20 07:29:00,
2013-11-20 01:30:00,49.6,30.7,29.96,South,173,7.0,22.0,48,0.00,,---,0.00,VWS V14.01,2013-11-20 07:30:00,
2013-11-20 01:34:00,49.5,30.6,29.96,South,180,11.0,19.0,48,0.00,,---,0.00,VWS V14.01,2013-11-20 07:34:00,
2013-11-20 01:35:00,49.5,30.6,29.96,SSE,168,7.0,19.0,48,0.00,,---,0.00,VWS V14.01,2013-11-20 07:35:00,
2013-11-20 01:39:00,49.5,30.6,29.96,SSE,163,6.0,19.0,48,0.00,,---,0.00,VWS V14.01,2013-11-20 07:39:00,
2013-11-20 01:40:00,49.4,30.5,29.96,ESE,109,12.0,19.0,48,0.00,,---,0.00,VWS V14.01,2013-11-20 07:40:00,
2013-11-20 01:44:00,49.5,30.6,29.96,SSW,202,6.0,17.0,48,0.00,,---,0.00,VWS V14.01,2013-11-20 07:44:00,
2013-11-20 01:45:00,49.4,30.5,29.96,South,171,11.0,17.0,48,0.00,,---,0.00,VWS V14.01,2013-11-20 07:45:00,
2013-11-20 01:49:00,49.4,30.5,29.96,South,175,4.0,19.0,48,0.00,,---,0.00,VWS V14.01,2013-11-20 07:49:00,
2013-11-20 01:50:00,49.4,30.5,29.96,South,184,4.0,19.0,48,0.00,,---,0.00,VWS V14.01,2013-11-20 07:50:00,
2013-11-20 01:54:00,49.5,30.6,29.96,SSE,159,12.0,19.0,48,0.00,,---,0.00,VWS V14.01,2013-11-20 07:54:00,
2013-11-20 01:55:00,49.4,30.5,29.96,South,187,4.0,19.0,48,0.00,,---,0.00,VWS V14.01,2013-11-20 07:55:00,
2013-11-20 01:59:00,49.4,31.1,29.96,South,183,10.0,18.0,49,0.00,,---,0.00,VWS V14.01,2013-11-20 07:59:00,
2013-11-20 02:00:00,49.3,30.5,29.96,SSE,167,12.0,19.0,48,0.00,,---,0.00,VWS V14.01,2013-11-20 08:00:00,
2013-11-20 02:04:00,49.3,31.0,29.96,SSE,161,9.0,18.0,49,0.00,,---,0.00,VWS V14.01,2013-11-20 08:04:00,
2013-11-20 02:05:00,49.3,30.5,29.96,SSW,194,9.0,18.0,48,0.00,,---,0.00,VWS V14.01,2013-11-20 08:05:00,
2013-11-20 02:09:00,49.3,31.0,29.96,South,169,13.0,19.0,49,0.00,,---,0.00,VWS V14.01,2013-11-20 08:09:00,
2013-11-20 02:10:00,49.3,31.0,29.96,South,186,6.0,19.0,49,0.00,,---,0.00,VWS V14.01,2013-11-20 08:10:00,
2013-11-20 02:14:00,49.3,30.5,29.96,South,174,6.0,18.0,48,0.00,,---,0.00,VWS V14.01,2013-11-20 08:14:00,
2013-11-20 02:15:00,49.2,30.9,29.96,SSE,166,9.0,18.0,49,0.00,,---,0.00,VWS V14.01,2013-11-20 08:15:00,
2013-11-20 02:19:00,49.2,30.4,29.96,South,176,10.0,15.0,48,0.00,,---,0.00,VWS V14.01,2013-11-20 08:19:00,
2013-11-20 02:20:00,49.2,30.4,29.96,SSW,199,4.0,15.0,48,0.00,,---,0.00,VWS V14.01,2013-11-20 08:20:00,
2013-11-20 02:24:00,49.1,30.8,29.96,South,189,4.0,13.0,49,0.00,,---,0.00,VWS V14.01,2013-11-20 08:24:00,
2013-11-20 02:25:00,49.1,30.8,29.96,SSW,192,6.0,13.0,49,0.00,,---,0.00,VWS V14.01,2013-11-20 08:25:00,
2013-11-20 02:29:00,49.1,30.8,29.96,SSW,196,10.0,17.0,49,0.00,,---,0.00,VWS V14.01,2013-11-20 08:29:00,
2013-11-20 02:30:00,49.1,30.8,29.96,SSE,164,5.0,17.0,49,0.00,,---,0.00,VWS V14.01,2013-11-20 08:30:00,
2013-11-20 02:34:00,49.0,30.7,29.96,South,188,13.0,14.0,49,0.00,,---,0.00,VWS V14.01,2013-11-20 08:34:00,
2013-11-20 02:35:00,49.1,30.3,29.96,SE,146,11.0,14.0,48,0.00,,---,0.00,VWS V14.01,2013-11-20 08:35:00,
2013-11-20 02:39:00,49.0,30.7,29.96,SSE,159,9.0,18.0,49,0.00,,---,0.00,VWS V14.01,2013-11-20 08:39:00,
2013-11-20 02:40:00,49.0,30.7,29.96,South,188,10.0,18.0,49,0.00,,---,0.00,VWS V14.01,2013-11-20 08:40:00,
2013-11-20 02:45:00,48.9,30.6,29.95,SSW,192,6.0,15.0,49,0.00,,---,0.00,VWS V14.01,2013-11-20 08:45:00,
2013-11-20 02:50:00,48.9,30.6,29.96,SSW,192,6.0,21.0,49,0.00,,---,0.00,VWS V14.01,2013-11-20 08:50:00,
2013-11-20 02:55:00,48.9,30.6,29.96,SSW,200,10.0,16.0,49,0.00,,---,0.00,VWS V14.01,2013-11-20 08:55:00,
2013-11-20 03:00:00,48.9,30.6,29.96,South,184,5.0,14.0,49,0.00,,---,0.00,VWS V14.01,2013-11-20 09:00:00,
2013-11-20 03:05:00,48.9,30.1,29.95,South,180,4.0,18.0,48,0.00,,---,0.00,VWS V14.01,2013-11-20 09:05:00,
2013-11-20 03:10:00,48.9,30.6,29.95,SSW,202,6.0,15.0,49,0.00,,---,0.00,VWS V14.01,2013-11-20 09:10:00,
2013-11-20 03:15:00,48.9,30.6,29.95,SW,217,2.0,18.0,49,0.00,,---,0.00,VWS V14.01,2013-11-20 09:15:00,
2013-11-20 03:20:00,48.9,30.6,29.95,South,189,7.0,14.0,49,0.00,,---,0.00,VWS V14.01,2013-11-20 09:20:00,
2013-11-20 03:25:00,48.9,30.6,29.95,South,173,9.0,16.0,49,0.00,,---,0.00,VWS V14.01,2013-11-20 09:25:00,
2013-11-20 03:30:00,48.9,30.6,29.95,South,174,7.0,16.0,49,0.00,,---,0.00,VWS V14.01,2013-11-20 09:30:00,
2013-11-20 03:35:00,49.0,30.2,29.94,SSE,150,8.0,18.0,48,0.00,,---,0.00,VWS V14.01,2013-11-20 09:35:00,
2013-11-20 03:40:00,49.0,30.7,29.94,SSE,153,10.0,10.0,49,0.00,,---,0.00,VWS V14.01,2013-11-20 09:40:00,
2013-11-20 03:45:00,49.0,30.7,29.94,SSW,192,3.0,16.0,49,0.00,,---,0.00,VWS V14.01,2013-11-20 09:45:00,
2013-11-20 03:50:00,49.1,30.3,29.94,SSE,163,4.0,18.0,48,0.00,,---,0.00,VWS V14.01,2013-11-20 09:50:00,
2013-11-20 03:55:00,49.1,30.3,29.94,South,190,3.0,17.0,48,0.00,,---,0.00,VWS V14.01,2013-11-20 09:55:00,
2013-11-20 04:00:00,49.1,30.8,29.94,SSE,163,6.0,6.0,49,0.00,,---,0.00,VWS V14.01,2013-11-20 10:00:00,
2013-11-20 04:05:00,49.0,30.7,29.94,SSE,163,8.0,10.0,49,0.00,,---,0.00,VWS V14.01,2013-11-20 10:05:00,
2013-11-20 04:10:00,49.0,30.7,29.94,South,182,3.0,5.0,49,0.00,,---,0.00,VWS V14.01,2013-11-20 10:10:00,
2013-11-20 04:15:00,48.9,31.1,29.93,South,181,3.0,4.0,50,0.00,,---,0.00,VWS V14.01,2013-11-20 10:15:00,
2013-11-20 04:20:00,48.9,31.1,29.93,South,178,3.0,4.0,50,0.00,,---,0.00,VWS V14.01,2013-11-20 10:20:00,
2013-11-20 04:25:00,48.9,31.1,29.93,SSW,197,12.0,14.0,50,0.00,,---,0.00,VWS V14.01,2013-11-20 10:25:00,
2013-11-20 04:30:00,48.8,31.0,29.93,SSE,163,11.0,11.0,50,0.00,,---,0.00,VWS V14.01,2013-11-20 10:30:00,
2013-11-20 04:35:00,48.8,31.5,29.93,SSE,166,4.0,11.0,51,0.00,,---,0.00,VWS V14.01,2013-11-20 10:35:00,
2013-11-20 04:40:00,48.7,31.4,29.93,South,174,5.0,9.0,51,0.00,,---,0.00,VWS V14.01,2013-11-20 10:40:00,
2013-11-20 04:45:00,48.6,31.3,29.92,SSW,200,5.0,19.0,51,0.00,,---,0.00,VWS V14.01,2013-11-20 10:45:00,
2013-11-20 04:46:00,48.6,31.3,29.93,South,170,7.0,12.0,51,0.00,,---,0.00,VWS V14.01,2013-11-20 10:46:00,
2013-11-20 04:50:00,48.6,31.8,29.93,South,173,3.0,16.0,52,0.00,,---,0.00,VWS V14.01,2013-11-20 10:50:00,
2013-11-20 04:51:00,48.6,31.8,29.93,SSE,165,4.0,11.0,52,0.00,,---,0.00,VWS V14.01,2013-11-20 10:51:00,
2013-11-20 04:55:00,48.5,31.7,29.92,SSE,164,6.0,17.0,52,0.00,,---,0.00,VWS V14.01,2013-11-20 10:55:00,
2013-11-20 04:56:00,48.5,31.7,29.92,SSE,167,7.0,13.0,52,0.00,,---,0.00,VWS V14.01,2013-11-20 10:56:00,
2013-11-20 05:00:00,48.4,31.6,29.92,SSW,203,9.0,18.0,52,0.00,,---,0.00,VWS V14.01,2013-11-20 11:00:00,
2013-11-20 05:01:00,48.5,31.7,29.92,SSW,205,8.0,16.0,52,0.00,,---,0.00,VWS V14.01,2013-11-20 11:01:00,
2013-11-20 05:05:00,48.3,31.5,29.92,SSW,205,13.0,18.0,52,0.00,,---,0.00,VWS V14.01,2013-11-20 11:05:00,
2013-11-20 05:06:00,48.3,31.5,29.92,South,171,15.0,15.0,52,0.00,,---,0.00,VWS V14.01,2013-11-20 11:06:00,
2013-11-20 05:10:00,48.2,31.9,29.92,South,189,1.0,16.0,53,0.00,,---,0.00,VWS V14.01,2013-11-20 11:10:00,
2013-11-20 05:11:00,48.2,31.9,29.92,SSW,198,5.0,11.0,53,0.00,,---,0.00,VWS V14.01,2013-11-20 11:11:00,
2013-11-20 05:15:00,48.0,31.7,29.92,SSW,209,11.0,17.0,53,0.00,,---,0.00,VWS V14.01,2013-11-20 11:15:00,
2013-11-20 05:16:00,48.0,31.7,29.92,South,185,5.0,12.0,53,0.00,,---,0.00,VWS V14.01,2013-11-20 11:16:00,
2013-11-20 05:20:00,47.9,32.1,29.92,SSE,165,10.0,15.0,54,0.00,,---,0.00,VWS V14.01,2013-11-20 11:20:00,
2013-11-20 05:21:00,47.8,32.0,29.92,SSW,194,6.0,10.0,54,0.00,,---,0.00,VWS V14.01,2013-11-20 11:21:00,
2013-11-20 05:25:00,47.8,32.0,29.92,SSW,193,13.0,17.0,54,0.00,,---,0.00,VWS V14.01,2013-11-20 11:25:00,
2013-11-20 05:26:00,47.7,31.9,29.92,SSW,200,12.0,14.0,54,0.00,,---,0.00,VWS V14.01,2013-11-20 11:26:00,
2013-11-20 05:30:00,47.6,32.2,29.92,South,182,13.0,14.0,55,0.00,,---,0.00,VWS V14.01,2013-11-20 11:30:00,
2013-11-20 05:31:00,47.6,32.2,29.92,South,175,5.0,13.0,55,0.00,,---,0.00,VWS V14.01,2013-11-20 11:31:00,
2013-11-20 05:35:00,47.5,32.2,29.92,SSE,168,3.0,14.0,55,0.00,,---,0.00,VWS V14.01,2013-11-20 11:35:00,
2013-11-20 05:36:00,47.4,32.1,29.92,SSE,164,5.0,10.0,55,0.00,,---,0.00,VWS V14.01,2013-11-20 11:36:00,
2013-11-20 05:40:00,47.4,32.1,29.92,SSW,194,12.0,18.0,55,0.00,,---,0.00,VWS V14.01,2013-11-20 11:40:00,
2013-11-20 05:41:00,47.3,32.0,29.92,South,175,3.0,15.0,55,0.00,,---,0.00,VWS V14.01,2013-11-20 11:41:00,
2013-11-20 05:45:00,47.3,32.4,29.92,SSE,167,7.0,15.0,56,0.00,,---,0.00,VWS V14.01,2013-11-20 11:45:00,
2013-11-20 05:46:00,47.3,32.4,29.92,SSE,159,14.0,15.0,56,0.00,,---,0.00,VWS V14.01,2013-11-20 11:46:00,
2013-11-20 05:50:00,47.3,32.4,29.92,SE,146,4.0,16.0,56,0.00,,---,0.00,VWS V14.01,2013-11-20 11:50:00,
2013-11-20 05:51:00,47.3,32.4,29.92,South,175,5.0,15.0,56,0.00,,---,0.00,VWS V14.01,2013-11-20 11:51:00,
2013-11-20 05:55:00,47.2,32.3,29.92,SSW,199,6.0,17.0,56,0.00,,---,0.00,VWS V14.01,2013-11-20 11:55:00,
2013-11-20 05:56:00,47.2,32.3,29.92,SSE,150,4.0,18.0,56,0.00,,---,0.00,VWS V14.01,2013-11-20 11:56:00,
2013-11-20 06:00:00,47.1,32.2,29.92,South,190,6.0,18.0,56,0.00,,---,0.00,VWS V14.01,2013-11-20 12:00:00,
2013-11-20 06:01:00,47.0,32.1,29.92,SSE,148,16.0,16.0,56,0.00,,---,0.00,VWS V14.01,2013-11-20 12:01:00,
2013-11-20 06:05:00,46.9,32.5,29.92,South,182,6.0,16.0,57,0.00,,---,0.00,VWS V14.01,2013-11-20 12:05:00,
2013-11-20 06:06:00,46.9,32.5,29.92,SSE,167,4.0,10.0,57,0.00,,---,0.00,VWS V14.01,2013-11-20 12:06:00,
2013-11-20 06:10:00,46.9,32.5,29.92,South,178,7.0,17.0,57,0.00,,---,0.00,VWS V14.01,2013-11-20 12:10:00,
2013-11-20 06:11:00,46.9,32.5,29.92,SSE,153,4.0,19.0,57,0.00,,---,0.00,VWS V14.01,2013-11-20 12:11:00,
2013-11-20 06:15:00,46.7,32.3,29.92,SSE,163,3.0,19.0,57,0.00,,---,0.00,VWS V14.01,2013-11-20 12:15:00,
2013-11-20 06:17:00,46.6,32.6,29.92,SSW,192,6.0,12.0,58,0.00,,---,0.00,VWS V14.01,2013-11-20 12:17:00,
2013-11-20 06:20:00,46.4,32.4,29.92,SSE,161,9.0,14.0,58,0.00,,---,0.00,VWS V14.01,2013-11-20 12:20:00,
2013-11-20 06:22:00,46.3,32.8,29.92,SSE,164,5.0,13.0,59,0.00,,---,0.00,VWS V14.01,2013-11-20 12:22:00,
2013-11-20 06:25:00,46.1,32.6,29.92,SSE,147,4.0,13.0,59,0.00,,---,0.00,VWS V14.01,2013-11-20 12:25:00,
2013-11-20 06:27:00,46.0,32.9,29.92,SSE,163,7.0,12.0,60,0.00,,---,0.00,VWS V14.01,2013-11-20 12:27:00,
2013-11-20 06:30:00,45.8,32.7,29.92,SSE,149,10.0,16.0,60,0.00,,---,0.00,VWS V14.01,2013-11-20 12:30:00,
2013-11-20 06:32:00,45.8,33.1,29.92,SSW,198,4.0,11.0,61,0.00,,---,0.00,VWS V14.01,2013-11-20 12:32:00,
2013-11-20 06:35:00,45.6,32.9,29.92,SSE,162,5.0,12.0,61,0.00,,---,0.00,VWS V14.01,2013-11-20 12:35:00,
2013-11-20 06:37:00,45.5,32.8,29.92,South,185,5.0,12.0,61,0.00,,---,0.00,VWS V14.01,2013-11-20 12:37:00,
2013-11-20 06:40:00,45.4,33.2,29.92,South,171,4.0,15.0,62,0.00,,---,0.00,VWS V14.01,2013-11-20 12:40:00,
2013-11-20 06:42:00,45.2,33.0,29.93,SSE,161,12.0,12.0,62,0.00,,---,0.00,VWS V14.01,2013-11-20 12:42:00,
2013-11-20 06:45:00,45.1,33.3,29.92,SSE,155,3.0,14.0,63,0.00,,---,0.00,VWS V14.01,2013-11-20 12:45:00,
2013-11-20 06:47:00,45.1,33.3,29.93,SSE,157,5.0,14.0,63,0.00,,---,0.00,VWS V14.01,2013-11-20 12:47:00,
2013-11-20 06:50:00,45.1,33.3,29.93,SSE,163,3.0,14.0,63,0.00,,---,0.00,VWS V14.01,2013-11-20 12:50:00,
2013-11-20 06:52:00,45.1,33.3,29.93,ESE,117,5.0,14.0,63,0.00,,---,0.00,VWS V14.01,2013-11-20 12:52:00,
2013-11-20 06:55:00,45.0,33.2,29.93,SSE,165,5.0,16.0,63,0.00,,---,0.00,VWS V14.01,2013-11-20 12:55:00,
2013-11-20 06:57:00,45.0,33.2,29.92,SSE,165,3.0,12.0,63,0.00,,---,0.00,VWS V14.01,2013-11-20 12:57:00,
2013-11-20 07:00:00,44.8,33.4,29.92,South,169,3.0,12.0,64,0.00,,---,0.00,VWS V14.01,2013-11-20 13:00:00,
2013-11-20 07:02:00,44.8,33.4,29.93,SSE,163,10.0,14.0,64,0.00,,---,0.00,VWS V14.01,2013-11-20 13:02:00,
2013-11-20 07:05:00,44.7,33.3,29.93,South,191,5.0,14.0,64,0.00,,---,0.00,VWS V14.01,2013-11-20 13:05:00,
2013-11-20 07:07:00,44.7,33.3,29.93,South,190,9.0,12.0,64,0.00,,---,0.00,VWS V14.01,2013-11-20 13:07:00,
2013-11-20 07:10:00,44.6,33.6,29.93,SE,140,6.0,15.0,65,0.00,,---,0.00,VWS V14.01,2013-11-20 13:10:00,
2013-11-20 07:12:00,44.5,33.5,29.93,South,169,4.0,11.0,65,0.00,,---,0.00,VWS V14.01,2013-11-20 13:12:00,
2013-11-20 07:15:00,44.5,33.5,29.93,SE,145,6.0,16.0,65,0.00,,---,0.00,VWS V14.01,2013-11-20 13:15:00,
2013-11-20 07:17:00,44.4,33.4,29.93,South,189,8.0,10.0,65,0.00,,---,0.00,VWS V14.01,2013-11-20 13:17:00,
2013-11-20 07:20:00,44.3,33.3,29.93,SSE,155,7.0,10.0,65,0.00,,---,0.00,VWS V14.01,2013-11-20 13:20:00,
2013-11-20 07:22:00,44.3,33.3,29.93,SSE,165,2.0,7.0,65,0.00,,---,0.00,VWS V14.01,2013-11-20 13:22:00,
2013-11-20 07:25:00,44.2,33.6,29.93,SSE,151,4.0,11.0,66,0.00,,---,0.00,VWS V14.01,2013-11-20 13:25:00,
2013-11-20 07:27:00,44.1,33.5,29.93,SSE,147,6.0,10.0,66,0.00,,---,0.00,VWS V14.01,2013-11-20 13:27:00,
2013-11-20 07:30:00,44.1,33.5,29.93,SSE,154,12.0,14.0,66,0.00,,---,0.00,VWS V14.01,2013-11-20 13:30:00,
2013-11-20 07:32:00,44.1,33.5,29.93,South,175,3.0,15.0,66,0.00,,---,0.00,VWS V14.01,2013-11-20 13:32:00,
2013-11-20 07:35:00,44.0,33.4,29.94,SSE,153,5.0,15.0,66,0.00,,---,0.00,VWS V14.01,2013-11-20 13:35:00,
2013-11-20 07:37:00,44.0,33.4,29.94,SSE,165,10.0,11.0,66,0.00,,---,0.00,VWS V14.01,2013-11-20 13:37:00,
2013-11-20 07:40:00,44.0,33.8,29.93,South,180,5.0,16.0,67,0.00,,---,0.00,VWS V14.01,2013-11-20 13:40:00,
2013-11-20 07:43:00,43.9,33.7,29.94,South,183,4.0,17.0,67,0.00,,---,0.00,VWS V14.01,2013-11-20 13:43:00,
2013-11-20 07:45:00,43.9,33.7,29.93,SSE,163,2.0,17.0,67,0.00,,---,0.00,VWS V14.01,2013-11-20 13:45:00,
2013-11-20 07:48:00,43.9,33.7,29.93,SSE,159,9.0,14.0,67,0.00,,---,0.00,VWS V14.01,2013-11-20 13:48:00,
2013-11-20 07:50:00,44.0,33.8,29.93,South,191,2.0,14.0,67,0.00,,---,0.00,VWS V14.01,2013-11-20 13:50:00,
2013-11-20 07:53:00,44.0,33.8,29.94,South,170,5.0,14.0,67,0.00,,---,0.00,VWS V14.01,2013-11-20 13:53:00,
2013-11-20 07:55:00,44.0,33.8,29.93,SSE,151,3.0,14.0,67,0.00,,---,0.00,VWS V14.01,2013-11-20 13:55:00,
2013-11-20 07:58:00,44.0,33.8,29.94,SSE,148,3.0,14.0,67,0.00,,---,0.00,VWS V14.01,2013-11-20 13:58:00,
2013-11-20 08:00:00,44.0,34.1,29.94,SSE,159,4.0,14.0,68,0.00,,---,0.00,VWS V14.01,2013-11-20 14:00:00,
2013-11-20 08:03:00,44.0,34.1,29.94,South,180,6.0,10.0,68,0.00,,---,0.00,VWS V14.01,2013-11-20 14:03:00,
2013-11-20 08:05:00,43.9,34.0,29.94,South,173,3.0,10.0,68,0.00,,---,0.00,VWS V14.01,2013-11-20 14:05:00,
2013-11-20 08:08:00,43.9,34.0,29.94,SSE,157,2.0,9.0,68,0.00,,---,0.00,VWS V14.01,2013-11-20 14:08:00,
2013-11-20 08:10:00,43.9,34.0,29.94,SE,126,8.0,14.0,68,0.00,,---,0.00,VWS V14.01,2013-11-20 14:10:00,
2013-11-20 08:13:00,43.9,34.0,29.94,South,190,12.0,13.0,68,0.00,,---,0.00,VWS V14.01,2013-11-20 14:13:00,
2013-11-20 08:15:00,44.0,34.1,29.94,South,182,11.0,18.0,68,0.00,,---,0.00,VWS V14.01,2013-11-20 14:15:00,
2013-11-20 08:18:00,44.1,34.2,29.94,SSW,202,5.0,18.0,68,0.00,,---,0.00,VWS V14.01,2013-11-20 14:18:00,
2013-11-20 08:20:00,44.2,34.3,29.94,South,177,4.0,18.0,68,0.00,,---,0.00,VWS V14.01,2013-11-20 14:20:00,
2013-11-20 08:23:00,44.3,34.4,29.94,South,169,10.0,14.0,68,0.00,,---,0.00,VWS V14.01,2013-11-20 14:23:00,
2013-11-20 08:25:00,44.4,34.5,29.94,South,169,5.0,14.0,68,0.00,,---,0.00,VWS V14.01,2013-11-20 14:25:00,
2013-11-20 08:28:00,44.4,34.5,29.94,South,184,4.0,20.0,68,0.00,,---,0.00,VWS V14.01,2013-11-20 14:28:00,
2013-11-20 08:30:00,44.5,34.6,29.94,SSW,192,9.0,20.0,68,0.00,,---,0.00,VWS V14.01,2013-11-20 14:30:00,
2013-11-20 08:33:00,44.5,34.6,29.94,South,170,4.0,12.0,68,0.00,,---,0.00,VWS V14.01,2013-11-20 14:33:00,
2013-11-20 08:35:00,44.5,34.6,29.94,SSE,160,3.0,12.0,68,0.00,,---,0.00,VWS V14.01,2013-11-20 14:35:00,
2013-11-20 08:38:00,44.6,34.7,29.94,South,175,5.0,13.0,68,0.00,,---,0.00,VWS V14.01,2013-11-20 14:38:00,
2013-11-20 08:40:00,44.6,34.3,29.94,SSE,161,4.0,16.0,67,0.00,,---,0.00,VWS V14.01,2013-11-20 14:40:00,
2013-11-20 08:43:00,44.7,34.4,29.94,SSW,200,6.0,9.0,67,0.00,,---,0.00,VWS V14.01,2013-11-20 14:43:00,
2013-11-20 08:45:00,44.7,34.8,29.94,South,173,7.0,16.0,68,0.00,,---,0.00,VWS V14.01,2013-11-20 14:45:00,
2013-11-20 08:48:00,44.9,34.6,29.94,South,170,5.0,17.0,67,0.00,,---,0.00,VWS V14.01,2013-11-20 14:48:00,
2013-11-20 08:50:00,44.9,34.6,29.94,South,173,4.0,17.0,67,0.00,,---,0.00,VWS V14.01,2013-11-20 14:50:00,
2013-11-20 08:53:00,45.0,34.7,29.94,SE,136,4.0,12.0,67,0.00,,---,0.00,VWS V14.01,2013-11-20 14:53:00,
2013-11-20 08:55:00,45.1,34.8,29.94,SSE,157,4.0,12.0,67,0.00,,---,0.00,VWS V14.01,2013-11-20 14:55:00,
2013-11-20 08:58:00,45.1,34.4,29.94,SSE,155,4.0,15.0,66,0.00,,---,0.00,VWS V14.01,2013-11-20 14:58:00,
2013-11-20 09:00:00,45.1,34.4,29.94,South,171,15.0,20.0,66,0.00,,---,0.00,VWS V14.01,2013-11-20 15:00:00,
2013-11-20 09:03:00,45.1,34.4,29.94,SSE,153,3.0,15.0,66,0.00,,---,0.00,VWS V14.01,2013-11-20 15:03:00,
2013-11-20 09:05:00,45.1,34.4,29.94,South,183,6.0,16.0,66,0.00,,---,0.00,VWS V14.01,2013-11-20 15:05:00,
2013-11-20 09:08:00,45.1,34.4,29.94,South,173,5.0,15.0,66,0.00,,---,0.00,VWS V14.01,2013-11-20 15:08:00,
2013-11-20 09:10:00,45.1,34.4,29.94,SSE,149,6.0,15.0,66,0.00,,---,0.00,VWS V14.01,2013-11-20 15:10:00,
2013-11-20 09:14:00,45.1,34.4,29.94,South,181,7.0,16.0,66,0.00,,---,0.00,VWS V14.01,2013-11-20 15:14:00,
2013-11-20 09:15:00,45.1,34.4,29.94,SSE,168,4.0,16.0,66,0.00,,---,0.00,VWS V14.01,2013-11-20 15:15:00,
2013-11-20 09:19:00,45.3,34.6,29.94,South,181,4.0,16.0,66,0.00,,---,0.00,VWS V14.01,2013-11-20 15:19:00,
2013-11-20 09:20:00,45.4,34.7,29.94,SSE,155,10.0,16.0,66,0.00,,---,0.00,VWS V14.01,2013-11-20 15:20:00,
2013-11-20 09:24:00,45.6,34.9,29.94,South,186,3.0,13.0,66,0.00,,---,0.00,VWS V14.01,2013-11-20 15:24:00,
2013-11-20 09:25:00,45.8,34.7,29.94,South,181,5.0,14.0,65,0.00,,---,0.00,VWS V14.01,2013-11-20 15:25:00,
2013-11-20 09:29:00,46.1,34.6,29.94,South,178,6.0,12.0,64,0.00,,---,0.00,VWS V14.01,2013-11-20 15:29:00,
2013-11-20 09:30:00,46.1,34.6,29.94,SSW,205,6.0,17.0,64,0.00,,---,0.00,VWS V14.01,2013-11-20 15:30:00,
2013-11-20 09:34:00,46.0,34.5,29.94,South,184,12.0,19.0,64,0.00,,---,0.00,VWS V14.01,2013-11-20 15:34:00,
2013-11-20 09:35:00,46.0,34.5,29.94,SSE,155,6.0,19.0,64,0.00,,---,0.00,VWS V14.01,2013-11-20 15:35:00,
2013-11-20 09:39:00,45.9,34.8,29.94,SSW,198,5.0,13.0,65,0.00,,---,0.00,VWS V14.01,2013-11-20 15:39:00,
2013-11-20 09:40:00,46.0,34.5,29.94,SE,146,12.0,19.0,64,0.00,,---,0.00,VWS V14.01,2013-11-20 15:40:00,
2013-11-20 09:44:00,46.0,34.5,29.94,South,182,3.0,16.0,64,0.00,,---,0.00,VWS V14.01,2013-11-20 15:44:00,
2013-11-20 09:45:00,46.0,34.5,29.94,South,182,9.0,16.0,64,0.00,,---,0.00,VWS V14.01,2013-11-20 15:45:00,
2013-11-20 09:49:00,46.1,34.6,29.94,South,191,5.0,16.0,64,0.00,,---,0.00,VWS V14.01,2013-11-20 15:49:00,
2013-11-20 09:50:00,46.1,35.0,29.94,South,184,5.0,16.0,65,0.00,,---,0.00,VWS V14.01,2013-11-20 15:50:00,
2013-11-20 09:54:00,46.2,34.7,29.94,SSE,161,10.0,20.0,64,0.00,,---,0.00,VWS V14.01,2013-11-20 15:54:00,
2013-11-20 09:55:00,46.3,34.8,29.94,SSE,158,6.0,20.0,64,0.00,,---,0.00,VWS V14.01,2013-11-20 15:55:00,
2013-11-20 09:59:00,46.5,35.0,29.94,SSE,160,7.0,18.0,64,0.00,,---,0.00,VWS V14.01,2013-11-20 15:59:00,
2013-11-20 10:00:00,46.5,35.0,29.94,SSW,196,6.0,18.0,64,0.00,,---,0.00,VWS V14.01,2013-11-20 16:00:00,
2013-11-20 10:04:00,46.8,35.3,29.94,South,173,14.0,17.0,64,0.00,,---,0.00,VWS V14.01,2013-11-20 16:04:00,
2013-11-20 10:05:00,46.8,35.3,29.94,South,170,5.0,17.0,64,0.00,,---,0.00,VWS V14.01,2013-11-20 16:05:00,
2013-11-20 10:09:00,46.9,35.4,29.94,South,175,10.0,15.0,64,0.00,,---,0.00,VWS V14.01,2013-11-20 16:09:00,
2013-11-20 10:10:00,46.8,34.9,29.94,SSE,168,10.0,20.0,63,0.00,,---,0.00,VWS V14.01,2013-11-20 16:10:00,
2013-11-20 10:14:00,46.8,35.3,29.94,SSW,211,9.0,17.0,64,0.00,,---,0.00,VWS V14.01,2013-11-20 16:14:00,
2013-11-20 10:15:00,46.8,35.3,29.94,South,188,11.0,17.0,64,0.00,,---,0.00,VWS V14.01,2013-11-20 16:15:00,
2013-11-20 10:19:00,46.9,35.4,29.94,SSW,202,5.0,19.0,64,0.00,,---,0.00,VWS V14.01,2013-11-20 16:19:00,
2013-11-20 10:20:00,46.9,35.4,29.94,South,184,11.0,19.0,64,0.00,,---,0.00,VWS V14.01,2013-11-20 16:20:00,
2013-11-20 10:24:00,47.0,35.1,29.94,South,188,16.0,19.0,63,0.00,,---,0.00,VWS V14.01,2013-11-20 16:24:00,
2013-11-20 10:25:00,47.0,35.1,29.94,SSW,201,6.0,19.0,63,0.00,,---,0.00,VWS V14.01,2013-11-20 16:25:00,
2013-11-20 10:29:00,47.1,35.2,29.94,South,186,10.0,15.0,63,0.00,,---,0.00,VWS V14.01,2013-11-20 16:29:00,
2013-11-20 10:30:00,47.2,35.3,29.94,SSE,163,11.0,15.0,63,0.00,,---,0.00,VWS V14.01,2013-11-20 16:30:00,
2013-11-20 10:34:00,47.3,35.4,29.94,SSW,209,16.0,18.0,63,0.00,,---,0.00,VWS V14.01,2013-11-20 16:34:00,
2013-11-20 10:35:00,47.3,35.4,29.94,SSE,152,5.0,18.0,63,0.00,,---,0.00,VWS V14.01,2013-11-20 16:35:00,
2013-11-20 10:39:00,47.4,35.5,29.94,SE,142,9.0,16.0,63,0.00,,---,0.00,VWS V14.01,2013-11-20 16:39:00,
2013-11-20 10:40:00,47.4,35.0,29.94,SSW,206,4.0,16.0,62,0.00,,---,0.00,VWS V14.01,2013-11-20 16:40:00,
2013-11-20 10:45:00,47.7,35.3,29.93,SSE,158,11.0,21.0,62,0.00,,---,0.00,VWS V14.01,2013-11-20 16:45:00,
2013-11-20 10:50:00,47.9,35.5,29.93,South,172,6.0,16.0,62,0.00,,---,0.00,VWS V14.01,2013-11-20 16:50:00,
2013-11-20 10:55:00,48.4,35.6,29.93,South,175,4.0,16.0,61,0.00,,---,0.00,VWS V14.01,2013-11-20 16:55:00,
2013-11-20 11:00:00,48.9,35.6,29.93,South,169,9.0,19.0,60,0.00,,---,0.00,VWS V14.01,2013-11-20 17:00:00,
2013-11-20 11:05:00,49.4,35.7,29.93,SSW,209,15.0,18.0,59,0.00,,---,0.00,VWS V14.01,2013-11-20 17:05:00,
2013-11-20 11:10:00,50.0,35.8,29.93,South,186,10.0,15.0,58,0.00,,---,0.00,VWS V14.01,2013-11-20 17:10:00,
2013-11-20 11:15:00,50.2,35.6,29.93,South,180,9.0,18.0,57,0.00,,---,0.00,VWS V14.01,2013-11-20 17:15:00,
2013-11-20 11:20:00,50.5,35.8,29.92,South,180,16.0,25.0,57,0.00,,---,0.00,VWS V14.01,2013-11-20 17:20:00,
2013-11-20 11:25:00,50.6,35.9,29.92,SSE,167,12.0,27.0,57,0.00,,---,0.00,VWS V14.01,2013-11-20 17:25:00,
2013-11-20 11:30:00,50.7,35.6,29.92,SSW,210,6.0,18.0,56,0.00,,---,0.00,VWS V14.01,2013-11-20 17:30:00,
2013-11-20 11:35:00,50.6,35.5,29.92,SSW,205,6.0,20.0,56,0.00,,---,0.00,VWS V14.01,2013-11-20 17:35:00,
2013-11-20 11:40:00,50.6,35.5,29.92,SSW,213,4.0,18.0,56,0.00,,---,0.00,VWS V14.01,2013-11-20 17:40:00,
2013-11-20 11:45:00,50.7,35.6,29.92,SW,227,5.0,17.0,56,0.00,,---,0.00,VWS V14.01,2013-11-20 17:45:00,
2013-11-20 11:50:00,50.6,35.5,29.91,South,176,5.0,13.0,56,0.00,,---,0.00,VWS V14.01,2013-11-20 17:50:00,
2013-11-20 11:55:00,50.6,35.5,29.91,South,174,3.0,18.0,56,0.00,,---,0.00,VWS V14.01,2013-11-20 17:55:00,
2013-11-20 12:00:00,50.6,35.9,29.90,SSE,161,12.0,15.0,57,0.00,,---,0.00,VWS V14.01,2013-11-20 18:00:00,
2013-11-20 12:05:00,51.2,36.1,29.90,South,188,11.0,18.0,56,0.00,,---,0.00,VWS V14.01,2013-11-20 18:05:00,
2013-11-20 12:10:00,52.1,36.9,29.90,South,175,6.0,14.0,56,0.00,,---,0.00,VWS V14.01,2013-11-20 18:10:00,
2013-11-20 12:15:00,52.5,36.3,29.90,SSW,202,10.0,14.0,54,0.00,,---,0.00,VWS V14.01,2013-11-20 18:15:00,
2013-11-20 12:20:00,52.8,36.6,29.90,SSW,202,3.0,15.0,54,0.00,,---,0.00,VWS V14.01,2013-11-20 18:20:00,
2013-11-20 12:25:00,53.2,36.5,29.89,SSE,150,4.0,18.0,53,0.00,,---,0.00,VWS V14.01,2013-11-20 18:25:00,
2013-11-20 12:30:00,53.5,36.8,29.89,South,184,7.0,15.0,53,0.00,,---,0.00,VWS V14.01,2013-11-20 18:30:00,
2013-11-20 12:35:00,53.8,36.6,29.89,South,184,9.0,14.0,52,0.00,,---,0.00,VWS V14.01,2013-11-20 18:35:00,
2013-11-20 12:40:00,54.4,37.2,29.89,South,188,7.0,16.0,52,0.00,,---,0.00,VWS V14.01,2013-11-20 18:40:00,
2013-11-20 12:45:00,54.8,37.5,29.89,South,171,6.0,18.0,52,0.00,,---,0.00,VWS V14.01,2013-11-20 18:45:00,
2013-11-20 12:50:00,55.0,37.2,29.89,SSW,194,2.0,18.0,51,0.00,,---,0.00,VWS V14.01,2013-11-20 18:50:00,
2013-11-20 12:55:00,55.2,37.4,29.89,SE,146,3.0,17.0,51,0.00,,---,0.00,VWS V14.01,2013-11-20 18:55:00,
2013-11-20 13:00:00,55.2,37.4,29.88,SSW,192,4.0,17.0,51,0.00,,---,0.00,VWS V14.01,2013-11-20 19:00:00,
2013-11-20 13:05:00,55.1,36.8,29.89,SSE,162,13.0,20.0,50,0.00,,---,0.00,VWS V14.01,2013-11-20 19:05:00,
2013-11-20 13:10:00,54.8,37.0,29.89,South,175,13.0,18.0,51,0.00,,---,0.00,VWS V14.01,2013-11-20 19:10:00,
2013-11-20 13:15:00,55.0,36.7,29.88,South,186,10.0,10.0,50,0.00,,---,0.00,VWS V14.01,2013-11-20 19:15:00,
2013-11-20 13:20:00,55.1,37.3,29.88,SSW,202,3.0,3.0,51,0.00,,---,0.00,VWS V14.01,2013-11-20 19:20:00,
2013-11-20 13:25:00,56.1,37.7,29.88,South,174,6.0,6.0,50,0.00,,---,0.00,VWS V14.01,2013-11-20 19:25:00,
2013-11-20 13:30:00,56.2,37.8,29.87,SW,217,10.0,11.0,50,0.00,,---,0.00,VWS V14.01,2013-11-20 19:30:00,
2013-11-20 13:35:00,56.0,37.6,29.88,SW,228,9.0,9.0,50,0.00,,---,0.00,VWS V14.01,2013-11-20 19:35:00,
2013-11-20 13:40:00,56.4,38.0,29.88,South,179,6.0,7.0,50,0.00,,---,0.00,VWS V14.01,2013-11-20 19:40:00,
2013-11-20 13:45:00,56.3,37.9,29.87,SSE,155,4.0,7.0,50,0.00,,---,0.00,VWS V14.01,2013-11-20 19:45:00,
2013-11-20 13:50:00,56.0,37.6,29.87,South,189,4.0,17.0,50,0.00,,---,0.00,VWS V14.01,2013-11-20 19:50:00,
2013-11-20 13:55:00,55.9,37.5,29.87,South,186,13.0,13.0,50,0.00,,---,0.00,VWS V14.01,2013-11-20 19:55:00,
2013-11-20 14:00:00,55.9,37.5,29.87,South,175,3.0,18.0,50,0.00,,---,0.00,VWS V14.01,2013-11-20 20:00:00,
2013-11-20 14:01:00,55.9,38.0,29.87,South,180,3.0,5.0,51,0.00,,---,0.00,VWS V14.01,2013-11-20 20:01:00,
2013-11-20 14:05:00,56.5,38.1,29.87,SSW,200,9.0,12.0,50,0.00,,---,0.00,VWS V14.01,2013-11-20 20:05:00,
2013-11-20 14:06:00,56.5,38.1,29.87,SSW,197,3.0,13.0,50,0.00,,---,0.00,VWS V14.01,2013-11-20 20:06:00,
2013-11-20 14:10:00,56.6,38.2,29.87,SSE,154,6.0,13.0,50,0.00,,---,0.00,VWS V14.01,2013-11-20 20:10:00,
2013-11-20 14:11:00,56.6,38.2,29.87,SE,142,3.0,9.0,50,0.00,,---,0.00,VWS V14.01,2013-11-20 20:11:00,
2013-11-20 14:15:00,56.4,38.0,29.87,South,180,9.0,14.0,50,0.00,,---,0.00,VWS V14.01,2013-11-20 20:15:00,
2013-11-20 14:16:00,56.4,38.0,29.87,SSE,168,6.0,11.0,50,0.00,,---,0.00,VWS V14.01,2013-11-20 20:16:00,
2013-11-20 14:20:00,56.4,38.0,29.87,SE,138,7.0,15.0,50,0.00,,---,0.00,VWS V14.01,2013-11-20 20:20:00,
2013-11-20 14:21:00,56.3,37.9,29.87,South,171,11.0,11.0,50,0.00,,---,0.00,VWS V14.01,2013-11-20 20:21:00,
2013-11-20 14:25:00,56.1,37.7,29.87,SSE,157,3.0,16.0,50,0.00,,---,0.00,VWS V14.01,2013-11-20 20:25:00,
2013-11-20 14:26:00,56.1,38.2,29.87,SSE,160,4.0,15.0,51,0.00,,---,0.00,VWS V14.01,2013-11-20 20:26:00,
2013-11-20 14:30:00,56.1,38.2,29.87,SSE,159,5.0,15.0,51,0.00,,---,0.00,VWS V14.01,2013-11-20 20:30:00,
2013-11-20 14:31:00,56.2,38.3,29.87,SSW,199,5.0,5.0,51,0.00,,---,0.00,VWS V14.01,2013-11-20 20:31:00,
2013-11-20 14:35:00,56.6,38.7,29.87,South,171,4.0,13.0,51,0.00,,---,0.00,VWS V14.01,2013-11-20 20:35:00,
2013-11-20 14:36:00,56.6,38.7,29.87,SSW,197,6.0,10.0,51,0.00,,---,0.00,VWS V14.01,2013-11-20 20:36:00,
2013-11-20 14:40:00,56.9,39.0,29.87,SSW,192,4.0,13.0,51,0.00,,---,0.00,VWS V14.01,2013-11-20 20:40:00,
2013-11-20 14:41:00,56.9,39.0,29.87,SSW,197,2.0,6.0,51,0.00,,---,0.00,VWS V14.01,2013-11-20 20:41:00,
2013-11-20 14:45:00,56.9,38.5,29.87,South,178,6.0,14.0,50,0.00,,---,0.00,VWS V14.01,2013-11-20 20:45:00,
2013-11-20 14:46:00,56.9,38.5,29.87,SSE,167,10.0,12.0,50,0.00,,---,0.00,VWS V14.01,2013-11-20 20:46:00,
2013-11-20 14:50:00,56.9,39.0,29.87,South,188,3.0,13.0,51,0.00,,---,0.00,VWS V14.01,2013-11-20 20:50:00,
2013-11-20 14:51:00,57.1,39.2,29.87,South,174,8.0,11.0,51,0.00,,---,0.00,VWS V14.01,2013-11-20 20:51:00,
2013-11-20 14:55:00,57.3,38.8,29.87,SE,128,2.0,11.0,50,0.00,,---,0.00,VWS V14.01,2013-11-20 20:55:00,
2013-11-20 14:56:00,57.3,38.8,29.87,South,169,10.0,10.0,50,0.00,,---,0.00,VWS V14.01,2013-11-20 20:56:00,
2013-11-20 15:00:00,57.2,38.8,29.87,SSE,163,3.0,13.0,50,0.00,,---,0.00,VWS V14.01,2013-11-20 21:00:00,
2013-11-20 15:01:00,57.1,38.7,29.87,South,175,2.0,6.0,50,0.00,,---,0.00,VWS V14.01,2013-11-20 21:01:00,
2013-11-20 15:05:00,57.0,38.6,29.87,SSE,153,2.0,11.0,50,0.00,,---,0.00,VWS V14.01,2013-11-20 21:05:00,
2013-11-20 15:06:00,57.0,38.6,29.87,South,180,6.0,13.0,50,0.00,,---,0.00,VWS V14.01,2013-11-20 21:06:00,
2013-11-20 15:10:00,56.9,38.5,29.87,SSE,152,2.0,13.0,50,0.00,,---,0.00,VWS V14.01,2013-11-20 21:10:00,
2013-11-20 15:11:00,56.8,38.4,29.87,South,170,11.0,11.0,50,0.00,,---,0.00,VWS V14.01,2013-11-20 21:11:00,
2013-11-20 15:15:00,56.7,38.3,29.87,SSE,168,2.0,11.0,50,0.00,,---,0.00,VWS V14.01,2013-11-20 21:15:00,
2013-11-20 15:16:00,56.7,38.8,29.87,SE,138,0.0,9.0,51,0.00,,---,0.00,VWS V14.01,2013-11-20 21:16:00,
2013-11-20 15:20:00,56.7,38.8,29.87,SSE,153,0.0,9.0,51,0.00,,---,0.00,VWS V14.01,2013-11-20 21:20:00,
2013-11-20 15:22:00,56.7,38.8,29.87,SSE,158,2.0,3.0,51,0.00,,---,0.00,VWS V14.01,2013-11-20 21:22:00,
2013-11-20 15:25:00,56.8,38.9,29.87,SSE,161,4.0,11.0,51,0.00,,---,0.00,VWS V14.01,2013-11-20 21:25:00,
2013-11-20 15:27:00,56.8,38.9,29.87,SSE,163,0.0,9.0,51,0.00,,---,0.00,VWS V14.01,2013-11-20 21:27:00,
2013-11-20 15:30:00,56.9,39.0,29.88,SSE,159,0.0,9.0,51,0.00,,---,0.00,VWS V14.01,2013-11-20 21:30:00,
2013-11-20 15:32:00,56.9,39.0,29.88,SSE,161,3.0,5.0,51,0.00,,---,0.00,VWS V14.01,2013-11-20 21:32:00,
2013-11-20 15:35:00,57.0,39.1,29.88,SSE,163,1.0,5.0,51,0.00,,---,0.00,VWS V14.01,2013-11-20 21:35:00,
2013-11-20 15:37:00,57.1,38.7,29.88,SE,146,2.0,9.0,50,0.00,,---,0.00,VWS V14.01,2013-11-20 21:37:00,
2013-11-20 15:40:00,57.1,39.2,29.88,SSE,168,0.0,9.0,51,0.00,,---,0.00,VWS V14.01,2013-11-20 21:40:00,
2013-11-20 15:42:00,57.1,39.2,29.88,SSE,153,0.0,4.0,51,0.00,,---,0.00,VWS V14.01,2013-11-20 21:42:00,
2013-11-20 15:45:00,57.2,39.2,29.88,SSE,149,2.0,4.0,51,0.00,,---,0.00,VWS V14.01,2013-11-20 21:45:00,
2013-11-20 15:47:00,57.2,39.2,29.88,SSE,149,0.0,3.0,51,0.00,,---,0.00,VWS V14.01,2013-11-20 21:47:00,
2013-11-20 15:50:00,57.3,39.3,29.89,SSE,150,0.0,3.0,51,0.00,,---,0.00,VWS V14.01,2013-11-20 21:50:00,
2013-11-20 15:52:00,57.2,39.2,29.89,SSE,150,0.0,1.0,51,0.00,,---,0.00,VWS V14.01,2013-11-20 21:52:00,
2013-11-20 15:55:00,57.2,39.2,29.89,SSE,161,1.0,2.0,51,0.00,,---,0.00,VWS V14.01,2013-11-20 21:55:00,
2013-11-20 15:57:00,57.2,39.2,29.89,SE,142,1.0,3.0,51,0.00,,---,0.00,VWS V14.01,2013-11-20 21:57:00,
2013-11-20 16:00:00,57.1,39.2,29.89,SE,130,0.0,3.0,51,0.00,,---,0.00,VWS V14.01,2013-11-20 22:00:00,
2013-11-20 16:02:00,57.1,39.2,29.89,SE,130,0.0,0.0,51,0.00,,---,0.00,VWS V14.01,2013-11-20 22:02:00,
2013-11-20 16:05:00,56.9,39.0,29.89,SE,130,0.0,1.0,51,0.00,,---,0.00,VWS V14.01,2013-11-20 22:05:00,
2013-11-20 16:07:00,56.8,38.9,29.89,SE,130,0.0,0.0,51,0.00,,---,0.00,VWS V14.01,2013-11-20 22:07:00,
2013-11-20 16:10:00,56.8,38.9,29.89,SE,130,1.0,2.0,51,0.00,,---,0.00,VWS V14.01,2013-11-20 22:10:00,
2013-11-20 16:12:00,56.6,38.7,29.89,SE,130,0.0,1.0,51,0.00,,---,0.00,VWS V14.01,2013-11-20 22:12:00,
2013-11-20 16:15:00,56.3,38.9,29.89,ESE,109,0.0,4.0,52,0.00,,---,0.00,VWS V14.01,2013-11-20 22:15:00,
2013-11-20 16:17:00,56.0,38.6,29.89,ESE,122,0.0,3.0,52,0.00,,---,0.00,VWS V14.01,2013-11-20 22:17:00,
2013-11-20 16:20:00,55.8,38.5,29.89,ESE,122,2.0,3.0,52,0.00,,---,0.00,VWS V14.01,2013-11-20 22:20:00,
2013-11-20 16:22:00,55.6,38.8,29.89,ESE,122,0.0,2.0,53,0.00,,---,0.00,VWS V14.01,2013-11-20 22:22:00,
2013-11-20 16:25:00,55.3,38.5,29.89,ESE,123,1.0,2.0,53,0.00,,---,0.00,VWS V14.01,2013-11-20 22:25:00,
2013-11-20 16:27:00,55.1,38.3,29.89,ESE,123,1.0,2.0,53,0.00,,---,0.00,VWS V14.01,2013-11-20 22:27:00,
2013-11-20 16:30:00,54.7,38.4,29.89,ESE,119,0.0,2.0,54,0.00,,---,0.00,VWS V14.01,2013-11-20 22:30:00,
2013-11-20 16:32:00,54.4,38.1,29.89,ESE,119,0.0,1.0,54,0.00,,---,0.00,VWS V14.01,2013-11-20 22:32:00,
2013-11-20 16:35:00,54.0,38.2,29.90,ESE,119,2.0,2.0,55,0.00,,---,0.00,VWS V14.01,2013-11-20 22:35:00,
2013-11-20 16:37:00,53.7,38.4,29.90,ESE,119,0.0,2.0,56,0.00,,---,0.00,VWS V14.01,2013-11-20 22:37:00,
2013-11-20 16:40:00,53.4,38.1,29.90,ESE,119,0.0,2.0,56,0.00,,---,0.00,VWS V14.01,2013-11-20 22:40:00,
2013-11-20 16:42:00,53.1,38.3,29.90,ESE,119,0.0,1.0,57,0.00,,---,0.00,VWS V14.01,2013-11-20 22:42:00,
2013-11-20 16:45:00,52.8,38.0,29.90,ESE,119,0.0,1.0,57,0.00,,---,0.00,VWS V14.01,2013-11-20 22:45:00,
2013-11-20 16:48:00,52.5,38.2,29.91,ESE,119,0.0,2.0,58,0.00,,---,0.00,VWS V14.01,2013-11-20 22:48:00,
2013-11-20 16:50:00,52.1,37.8,29.91,ESE,119,0.0,2.0,58,0.00,,---,0.00,VWS V14.01,2013-11-20 22:50:00,
2013-11-20 16:53:00,51.8,37.9,29.91,ESE,119,0.0,1.0,59,0.00,,---,0.00,VWS V14.01,2013-11-20 22:53:00,
2013-11-20 16:55:00,51.5,37.7,29.91,ESE,119,0.0,1.0,59,0.00,,---,0.00,VWS V14.01,2013-11-20 22:55:00,
2013-11-20 16:58:00,51.2,37.8,29.91,ESE,119,0.0,0.0,60,0.00,,---,0.00,VWS V14.01,2013-11-20 22:58:00,
2013-11-20 17:00:00,50.8,37.8,29.91,ESE,119,0.0,0.0,61,0.00,,---,0.00,VWS V14.01,2013-11-20 23:00:00,
2013-11-20 17:03:00,50.5,37.6,29.91,ESE,119,0.0,1.0,61,0.00,,---,0.00,VWS V14.01,2013-11-20 23:03:00,
2013-11-20 17:05:00,50.2,37.7,29.91,ESE,119,0.0,1.0,62,0.00,,---,0.00,VWS V14.01,2013-11-20 23:05:00,
2013-11-20 17:08:00,49.9,37.4,29.91,ESE,119,0.0,0.0,62,0.00,,---,0.00,VWS V14.01,2013-11-20 23:08:00,
2013-11-20 17:10:00,49.7,37.6,29.92,ESE,119,0.0,0.0,63,0.00,,---,0.00,VWS V14.01,2013-11-20 23:10:00,
2013-11-20 17:13:00,49.4,37.3,29.92,ESE,119,0.0,0.0,63,0.00,,---,0.00,VWS V14.01,2013-11-20 23:13:00,
2013-11-20 17:15:00,49.1,37.1,29.92,ESE,119,0.0,1.0,63,0.00,,---,0.00,VWS V14.01,2013-11-20 23:15:00,
2013-11-20 17:18:00,48.8,37.2,29.92,ESE,119,0.0,0.0,64,0.00,,---,0.00,VWS V14.01,2013-11-20 23:18:00,
2013-11-20 17:20:00,48.7,37.1,29.92,ESE,119,0.0,1.0,64,0.00,,---,0.00,VWS V14.01,2013-11-20 23:20:00,
2013-11-20 17:23:00,48.4,37.2,29.92,ESE,119,0.0,0.0,65,0.00,,---,0.00,VWS V14.01,2013-11-20 23:23:00,
2013-11-20 17:25:00,48.3,37.1,29.92,ESE,119,0.0,1.0,65,0.00,,---,0.00,VWS V14.01,2013-11-20 23:25:00,
2013-11-20 17:28:00,48.2,37.0,29.92,ESE,119,0.0,2.0,65,0.00,,---,0.00,VWS V14.01,2013-11-20 23:28:00,
2013-11-20 17:30:00,48.1,37.3,29.92,ESE,119,0.0,2.0,66,0.00,,---,0.00,VWS V14.01,2013-11-20 23:30:00,
2013-11-20 17:33:00,47.9,37.1,29.92,ESE,119,0.0,1.0,66,0.00,,---,0.00,VWS V14.01,2013-11-20 23:33:00,
2013-11-20 17:35:00,47.8,37.0,29.92,ESE,119,0.0,1.0,66,0.00,,---,0.00,VWS V14.01,2013-11-20 23:35:00,
2013-11-20 17:38:00,47.8,37.0,29.92,ESE,119,0.0,1.0,66,0.00,,---,0.00,VWS V14.01,2013-11-20 23:38:00,
2013-11-20 17:40:00,47.7,36.9,29.92,ESE,119,0.0,1.0,66,0.00,,---,0.00,VWS V14.01,2013-11-20 23:40:00,
2013-11-20 17:43:00,47.6,37.2,29.93,ESE,119,0.0,1.0,67,0.00,,---,0.00,VWS V14.01,2013-11-20 23:43:00,
2013-11-20 17:45:00,47.6,37.2,29.93,ESE,119,0.0,1.0,67,0.00,,---,0.00,VWS V14.01,2013-11-20 23:45:00,
2013-11-20 17:48:00,47.5,37.1,29.93,ESE,119,0.0,1.0,67,0.00,,---,0.00,VWS V14.01,2013-11-20 23:48:00,
2013-11-20 17:50:00,47.4,37.0,29.93,ESE,119,0.0,1.0,67,0.00,,---,0.00,VWS V14.01,2013-11-20 23:50:00,
2013-11-20 17:53:00,47.2,36.8,29.93,SE,127,1.0,2.0,67,0.00,,---,0.00,VWS V14.01,2013-11-20 23:53:00,
2013-11-20 17:55:00,47.1,36.7,29.93,SE,128,0.0,2.0,67,0.00,,---,0.00,VWS V14.01,2013-11-20 23:55:00,
2013-11-20 17:58:00,47.0,37.0,29.94,SE,128,0.0,2.0,68,0.00,,---,0.00,VWS V14.01,2013-11-20 23:58:00,
2013-11-20 18:00:00,46.9,36.9,29.93,SE,128,0.0,2.0,68,0.00,,---,0.00,VWS V14.01,2013-11-21 00:00:00,
2013-11-20 18:03:00,46.9,37.3,29.94,SE,137,0.0,4.0,69,0.00,,---,0.00,VWS V14.01,2013-11-21 00:03:00,
2013-11-20 18:05:00,46.9,37.3,29.94,SE,137,0.0,4.0,69,0.00,,---,0.00,VWS V14.01,2013-11-21 00:05:00,
2013-11-20 18:08:00,47.0,37.4,29.94,SE,130,3.0,4.0,69,0.00,,---,0.00,VWS V14.01,2013-11-21 00:08:00,
2013-11-20 18:10:00,47.0,37.4,29.94,SE,130,0.0,4.0,69,0.00,,---,0.00,VWS V14.01,2013-11-21 00:10:00,
2013-11-20 18:14:00,47.1,37.5,29.94,SE,130,0.0,1.0,69,0.00,,---,0.00,VWS V14.01,2013-11-21 00:14:00,
2013-11-20 18:15:00,47.1,37.5,29.94,SE,130,0.0,1.0,69,0.00,,---,0.00,VWS V14.01,2013-11-21 00:15:00,
2013-11-20 18:19:00,47.1,37.8,29.95,SSE,157,3.0,9.0,70,0.00,,---,0.00,VWS V14.01,2013-11-21 00:19:00,
2013-11-20 18:20:00,47.2,38.3,29.95,SSE,161,3.0,9.0,71,0.00,,---,0.00,VWS V14.01,2013-11-21 00:20:00,
2013-11-20 18:24:00,47.6,38.7,29.95,South,178,6.0,10.0,71,0.00,,---,0.00,VWS V14.01,2013-11-21 00:24:00,
2013-11-20 18:25:00,47.7,38.8,29.95,South,169,5.0,10.0,71,0.00,,---,0.00,VWS V14.01,2013-11-21 00:25:00,
2013-11-20 18:29:00,47.9,39.0,29.95,SSE,161,6.0,9.0,71,0.00,,---,0.00,VWS V14.01,2013-11-21 00:29:00,
2013-11-20 18:30:00,48.0,39.1,29.95,SSE,149,2.0,9.0,71,0.00,,---,0.00,VWS V14.01,2013-11-21 00:30:00,
2013-11-20 18:34:00,48.0,39.1,29.95,SSE,157,4.0,10.0,71,0.00,,---,0.00,VWS V14.01,2013-11-21 00:34:00,
2013-11-20 18:35:00,47.9,39.0,29.95,SSE,157,2.0,10.0,71,0.00,,---,0.00,VWS V14.01,2013-11-21 00:35:00,
2013-11-20 18:39:00,47.8,38.9,29.95,SSE,162,3.0,8.0,71,0.00,,---,0.00,VWS V14.01,2013-11-21 00:39:00,
2013-11-20 18:40:00,47.8,38.9,29.95,SE,129,3.0,9.0,71,0.00,,---,0.00,VWS V14.01,2013-11-21 00:40:00,
2013-11-20 18:44:00,47.7,39.1,29.95,SSE,152,1.0,6.0,72,0.00,,---,0.00,VWS V14.01,2013-11-21 00:44:00,
2013-11-20 18:45:00,47.6,39.0,29.95,SSE,163,2.0,6.0,72,0.00,,---,0.00,VWS V14.01,2013-11-21 00:45:00,
2013-11-20 18:49:00,47.5,38.9,29.95,SSE,163,0.0,11.0,72,0.00,,---,0.00,VWS V14.01,2013-11-21 00:49:00,
2013-11-20 18:50:00,47.4,38.8,29.95,SE,143,5.0,11.0,72,0.00,,---,0.00,VWS V14.01,2013-11-21 00:50:00,
2013-11-20 18:54:00,47.3,39.1,29.95,SSE,160,1.0,9.0,73,0.00,,---,0.00,VWS V14.01,2013-11-21 00:54:00,
2013-11-20 18:55:00,47.2,39.0,29.95,SSE,155,2.0,9.0,73,0.00,,---,0.00,VWS V14.01,2013-11-21 00:55:00,
2013-11-20 18:59:00,47.1,38.9,29.95,SSE,159,5.0,9.0,73,0.00,,---,0.00,VWS V14.01,2013-11-21 00:59:00,
2013-11-20 19:00:00,47.0,38.8,29.95,SSE,150,3.0,9.0,73,0.00,,---,0.00,VWS V14.01,2013-11-21 01:00:00,
2013-11-20 19:04:00,46.9,38.7,29.95,SSE,155,0.0,9.0,73,0.00,,---,0.00,VWS V14.01,2013-11-21 01:04:00,
2013-11-20 19:05:00,46.9,38.7,29.95,SSE,155,0.0,9.0,73,0.00,,---,0.00,VWS V14.01,2013-11-21 01:05:00,
2013-11-20 19:09:00,46.7,38.9,29.95,SSE,165,0.0,7.0,74,0.00,,---,0.00,VWS V14.01,2013-11-21 01:09:00,
2013-11-20 19:10:00,46.7,38.9,29.96,ESE,115,2.0,7.0,74,0.00,,---,0.00,VWS V14.01,2013-11-21 01:10:00,
2013-11-20 19:14:00,46.5,38.7,29.96,SSE,147,3.0,3.0,74,0.00,,---,0.00,VWS V14.01,2013-11-21 01:14:00,
2013-11-20 19:15:00,46.4,38.6,29.96,SSE,161,0.0,3.0,74,0.00,,---,0.00,VWS V14.01,2013-11-21 01:15:00,
2013-11-20 19:19:00,46.2,38.4,29.96,SSE,152,2.0,5.0,74,0.00,,---,0.00,VWS V14.01,2013-11-21 01:19:00,
2013-11-20 19:20:00,46.1,38.3,29.96,SSE,158,6.0,6.0,74,0.00,,---,0.00,VWS V14.01,2013-11-21 01:20:00,
2013-11-20 19:24:00,45.8,38.3,29.96,SSE,155,0.0,6.0,75,0.00,,---,0.00,VWS V14.01,2013-11-21 01:24:00,
2013-11-20 19:25:00,45.8,38.3,29.96,SSE,155,0.0,6.0,75,0.00,,---,0.00,VWS V14.01,2013-11-21 01:25:00,
2013-11-20 19:29:00,45.5,38.0,29.96,ESE,123,1.0,2.0,75,0.00,,---,0.00,VWS V14.01,2013-11-21 01:29:00,
2013-11-20 19:30:00,45.5,38.0,29.96,ESE,123,0.0,2.0,75,0.00,,---,0.00,VWS V14.01,2013-11-21 01:30:00,
2013-11-20 19:34:00,45.1,38.0,29.96,East,93,0.0,2.0,76,0.00,,---,0.00,VWS V14.01,2013-11-21 01:34:00,
2013-11-20 19:35:00,45.1,38.0,29.96,East,94,2.0,2.0,76,0.00,,---,0.00,VWS V14.01,2013-11-21 01:35:00,
2013-11-20 19:40:00,44.7,37.9,29.96,ESE,123,2.0,6.0,77,0.00,,---,0.00,VWS V14.01,2013-11-21 01:40:00,
2013-11-20 19:45:00,44.4,37.7,29.97,SE,124,0.0,2.0,77,0.00,,---,0.00,VWS V14.01,2013-11-21 01:45:00,
2013-11-20 19:50:00,44.1,37.7,29.97,SE,132,0.0,2.0,78,0.00,,---,0.00,VWS V14.01,2013-11-21 01:50:00,
2013-11-20 19:55:00,43.8,37.4,29.97,SE,131,0.0,1.0,78,0.00,,---,0.00,VWS V14.01,2013-11-21 01:55:00,
2013-11-20 20:00:00,43.6,37.5,29.97,ESE,121,0.0,2.0,79,0.00,,---,0.00,VWS V14.01,2013-11-21 02:00:00,
2013-11-20 20:05:00,43.3,37.2,29.98,SE,128,0.0,3.0,79,0.00,,---,0.00,VWS V14.01,2013-11-21 02:05:00,
2013-11-20 20:10:00,43.0,37.3,29.98,SE,128,0.0,0.0,80,0.00,,---,0.00,VWS V14.01,2013-11-21 02:10:00,
2013-11-20 20:15:00,42.8,37.1,29.98,SE,128,0.0,1.0,80,0.00,,---,0.00,VWS V14.01,2013-11-21 02:15:00,
2013-11-20 20:20:00,42.6,37.2,29.99,SE,128,0.0,4.0,81,0.00,,---,0.00,VWS V14.01,2013-11-21 02:20:00,
2013-11-20 20:25:00,42.4,37.3,29.99,SE,129,0.0,4.0,82,0.00,,---,0.00,VWS V14.01,2013-11-21 02:25:00,
2013-11-20 20:30:00,42.3,37.2,29.99,SE,142,0.0,5.0,82,0.00,,---,0.00,VWS V14.01,2013-11-21 02:30:00,
2013-11-20 20:35:00,42.2,37.1,29.99,SE,142,0.0,3.0,82,0.00,,---,0.00,VWS V14.01,2013-11-21 02:35:00,
2013-11-20 20:40:00,42.0,36.9,29.99,SE,132,1.0,4.0,82,0.00,,---,0.00,VWS V14.01,2013-11-21 02:40:00,
2013-11-20 20:45:00,41.8,36.7,29.99,SE,132,0.0,1.0,82,0.00,,---,0.00,VWS V14.01,2013-11-21 02:45:00,
2013-11-20 20:50:00,41.7,36.9,30.00,SE,136,0.0,9.0,83,0.00,,---,0.00,VWS V14.01,2013-11-21 02:50:00,
2013-11-20 20:55:00,41.6,36.8,29.99,SE,136,0.0,1.0,83,0.00,,---,0.00,VWS V14.01,2013-11-21 02:55:00,
2013-11-20 21:00:00,41.6,36.8,29.99,SSE,155,0.0,2.0,83,0.00,,---,0.00,VWS V14.01,2013-11-21 03:00:00,
2013-11-20 21:05:00,41.5,37.0,30.00,ESE,115,0.0,5.0,84,0.00,,---,0.00,VWS V14.01,2013-11-21 03:05:00,
2013-11-20 21:10:00,41.5,36.7,30.00,ESE,123,0.0,2.0,83,0.00,,---,0.00,VWS V14.01,2013-11-21 03:10:00,
2013-11-20 21:15:00,41.4,36.6,30.00,ESE,115,0.0,0.0,83,0.00,,---,0.00,VWS V14.01,2013-11-21 03:15:00,
2013-11-20 21:20:00,41.3,36.5,30.00,ESE,115,0.0,1.0,83,0.00,,---,0.00,VWS V14.01,2013-11-21 03:20:00,
2013-11-20 21:25:00,41.1,36.3,30.00,ESE,115,0.0,0.0,83,0.00,,---,0.00,VWS V14.01,2013-11-21 03:25:00,
2013-11-20 21:30:00,41.0,36.5,30.00,ESE,115,0.0,1.0,84,0.00,,---,0.00,VWS V14.01,2013-11-21 03:30:00,
2013-11-20 21:35:00,40.8,36.3,30.00,ESE,115,0.0,0.0,84,0.00,,---,0.00,VWS V14.01,2013-11-21 03:35:00,
2013-11-20 21:40:00,40.6,36.2,30.01,ESE,117,0.0,3.0,84,0.00,,---,0.00,VWS V14.01,2013-11-21 03:40:00,
2013-11-20 21:45:00,40.5,36.3,30.01,SE,129,0.0,0.0,85,0.00,,---,0.00,VWS V14.01,2013-11-21 03:45:00,
2013-11-20 21:50:00,40.5,36.3,30.01,SSW,208,0.0,3.0,85,0.00,,---,0.00,VWS V14.01,2013-11-21 03:50:00,
2013-11-20 21:55:00,40.5,36.3,30.02,SSW,207,0.0,3.0,85,0.00,,---,0.00,VWS V14.01,2013-11-21 03:55:00,
2013-11-20 21:56:00,40.5,36.3,30.02,SSW,207,1.0,1.0,85,0.00,,---,0.00,VWS V14.01,2013-11-21 03:56:00,
2013-11-20 22:00:00,40.4,36.3,30.02,NE,49,0.0,4.0,85,0.00,,---,0.00,VWS V14.01,2013-11-21 04:00:00,
2013-11-20 22:01:00,40.4,36.3,30.02,NE,49,0.0,2.0,85,0.00,,---,0.00,VWS V14.01,2013-11-21 04:01:00,
2013-11-20 22:05:00,40.4,36.3,30.02,East,85,1.0,4.0,85,0.00,,---,0.00,VWS V14.01,2013-11-21 04:05:00,
2013-11-20 22:06:00,40.4,36.3,30.02,East,86,0.0,2.0,85,0.00,,---,0.00,VWS V14.01,2013-11-21 04:06:00,
2013-11-20 22:10:00,40.2,36.1,30.02,East,86,0.0,2.0,85,0.00,,---,0.00,VWS V14.01,2013-11-21 04:10:00,
2013-11-20 22:11:00,40.2,36.1,30.02,East,86,2.0,3.0,85,0.00,,---,0.00,VWS V14.01,2013-11-21 04:11:00,
2013-11-20 22:15:00,40.1,36.0,30.02,East,86,0.0,3.0,85,0.00,,---,0.00,VWS V14.01,2013-11-21 04:15:00,
2013-11-20 22:16:00,40.1,36.0,30.02,East,86,0.0,0.0,85,0.00,,---,0.00,VWS V14.01,2013-11-21 04:16:00,
2013-11-20 22:20:00,40.0,35.9,30.02,SSE,167,0.0,3.0,85,0.00,,---,0.00,VWS V14.01,2013-11-21 04:20:00,
2013-11-20 22:21:00,40.0,35.9,30.02,SSE,167,0.0,0.0,85,0.00,,---,0.00,VWS V14.01,2013-11-21 04:21:00,
2013-11-20 22:25:00,39.8,35.7,30.03,SSW,200,0.0,4.0,85,0.00,,---,0.00,VWS V14.01,2013-11-21 04:25:00,
2013-11-20 22:26:00,39.8,35.7,30.03,SSW,200,0.0,0.0,85,0.00,,---,0.00,VWS V14.01,2013-11-21 04:26:00,
2013-11-20 22:30:00,39.7,35.9,30.02,South,188,0.0,2.0,86,0.00,,---,0.00,VWS V14.01,2013-11-21 04:30:00,
2013-11-20 22:31:00,39.7,35.9,30.02,South,175,0.0,2.0,86,0.00,,---,0.00,VWS V14.01,2013-11-21 04:31:00,
2013-11-20 22:35:00,39.6,35.8,30.03,SSE,166,0.0,2.0,86,0.00,,---,0.00,VWS V14.01,2013-11-21 04:35:00,
2013-11-20 22:36:00,39.5,35.7,30.03,SSE,166,0.0,1.0,86,0.00,,---,0.00,VWS V14.01,2013-11-21 04:36:00,
2013-11-20 22:40:00,39.4,35.6,30.03,SSE,166,0.0,2.0,86,0.00,,---,0.00,VWS V14.01,2013-11-21 04:40:00,
2013-11-20 22:41:00,39.4,35.6,30.03,SSE,166,0.0,2.0,86,0.00,,---,0.00,VWS V14.01,2013-11-21 04:41:00,
2013-11-20 22:45:00,39.3,35.5,30.03,SSE,166,0.0,2.0,86,0.00,,---,0.00,VWS V14.01,2013-11-21 04:45:00,
2013-11-20 22:46:00,39.2,35.4,30.03,SSE,166,0.0,0.0,86,0.00,,---,0.00,VWS V14.01,2013-11-21 04:46:00,
2013-11-20 22:50:00,39.1,35.3,30.03,SSE,166,0.0,1.0,86,0.00,,---,0.00,VWS V14.01,2013-11-21 04:50:00,
2013-11-20 22:51:00,39.1,35.3,30.03,SE,128,1.0,4.0,86,0.00,,---,0.00,VWS V14.01,2013-11-21 04:51:00,
2013-11-20 22:55:00,39.0,35.5,30.03,SE,128,0.0,4.0,87,0.00,,---,0.00,VWS V14.01,2013-11-21 04:55:00,
2013-11-20 22:56:00,39.0,35.5,30.04,SE,124,0.0,2.0,87,0.00,,---,0.00,VWS V14.01,2013-11-21 04:56:00,
2013-11-20 23:00:00,38.9,35.4,30.04,SE,124,0.0,2.0,87,0.00,,---,0.00,VWS V14.01,2013-11-21 05:00:00,
2013-11-20 23:01:00,38.9,35.4,30.04,SE,124,0.0,0.0,87,0.00,,---,0.00,VWS V14.01,2013-11-21 05:01:00,
2013-11-20 23:02:00,38.9,35.4,30.04,SE,124,0.0,0.0,87,0.00,,---,0.00,VWS V14.01,2013-11-21 05:02:00,
2013-11-20 23:03:00,38.9,35.4,30.04,SE,124,0.0,0.0,87,0.00,,---,0.00,VWS V14.01,2013-11-21 05:03:00,
2013-11-20 23:05:00,38.8,36.7,30.04,SE,124,0.0,0.0,92,0.00,,---,0.00,VWS V14.01,2013-11-21 05:05:00,
2013-11-20 23:08:00,38.7,35.2,30.04,SE,126,0.0,2.0,87,0.00,,---,0.00,VWS V14.01,2013-11-21 05:08:00,
2013-11-20 23:10:00,38.7,35.2,30.04,SE,126,0.0,2.0,87,0.00,,---,0.00,VWS V14.01,2013-11-21 05:10:00,
2013-11-20 23:13:00,38.6,35.1,30.04,SE,126,0.0,0.0,87,0.00,,---,0.00,VWS V14.01,2013-11-21 05:13:00,
2013-11-20 23:15:00,38.6,35.1,30.05,SE,126,0.0,0.0,87,0.00,,---,0.00,VWS V14.01,2013-11-21 05:15:00,
2013-11-20 23:18:00,38.5,35.3,30.05,SE,126,0.0,2.0,88,0.00,,---,0.00,VWS V14.01,2013-11-21 05:18:00,
2013-11-20 23:20:00,38.5,35.3,30.05,SE,126,0.0,2.0,88,0.00,,---,0.00,VWS V14.01,2013-11-21 05:20:00,
2013-11-20 23:23:00,38.4,35.2,30.05,SE,126,0.0,0.0,88,0.00,,---,0.00,VWS V14.01,2013-11-21 05:23:00,
2013-11-20 23:25:00,38.4,35.2,30.05,SE,126,0.0,0.0,88,0.00,,---,0.00,VWS V14.01,2013-11-21 05:25:00,
2013-11-20 23:28:00,38.4,35.2,30.05,SE,126,0.0,0.0,88,0.00,,---,0.00,VWS V14.01,2013-11-21 05:28:00,
2013-11-20 23:30:00,38.4,35.2,30.05,SE,126,0.0,0.0,88,0.00,,---,0.00,VWS V14.01,2013-11-21 05:30:00,
2013-11-20 23:34:00,38.3,35.1,30.05,SE,126,0.0,0.0,88,0.00,,---,0.00,VWS V14.01,2013-11-21 05:34:00,
2013-11-20 23:35:00,38.3,35.1,30.06,SE,126,0.0,0.0,88,0.00,,---,0.00,VWS V14.01,2013-11-21 05:35:00,
2013-11-20 23:39:00,38.2,35.0,30.06,SE,126,0.0,0.0,88,0.00,,---,0.00,VWS V14.01,2013-11-21 05:39:00,
2013-11-20 23:40:00,38.2,35.2,30.06,SE,126,0.0,0.0,89,0.00,,---,0.00,VWS V14.01,2013-11-21 05:40:00,
2013-11-20 23:44:00,38.2,35.0,30.06,SE,126,0.0,0.0,88,0.00,,---,0.00,VWS V14.01,2013-11-21 05:44:00,
2013-11-20 23:45:00,38.2,35.2,30.06,SE,126,0.0,0.0,89,0.00,,---,0.00,VWS V14.01,2013-11-21 05:45:00,
2013-11-20 23:49:00,38.1,34.9,30.07,SE,126,0.0,0.0,88,0.00,,---,0.00,VWS V14.01,2013-11-21 05:49:00,
2013-11-20 23:50:00,38.1,34.9,30.07,SE,126,0.0,0.0,88,0.00,,---,0.00,VWS V14.01,2013-11-21 05:50:00,
2013-11-20 23:54:00,38.0,35.0,30.07,SE,126,0.0,0.0,89,0.00,,---,0.00,VWS V14.01,2013-11-21 05:54:00,
2013-11-20 23:55:00,38.0,35.0,30.07,SE,126,0.0,0.0,89,0.00,,---,0.00,VWS V14.01,2013-11-21 05:55:00,
2013-11-20 23:57:00,37.9,35.0,30.07,SE,126,0.0,0.0,89,0.00,,---,0.00,VWS V14.01,2013-11-21 05:57:00,